TimeCDT,TemperatureF,Dew PointF,Humidity,Sea Level PressureIn,VisibilityMPH,Wind Direction,Wind SpeedMPH,Gust SpeedMPH,PrecipitationIn,Events,Conditions,WindDirDegrees,DateUTC
12:53 AM,62.1,60.1,93,29.79,-9999.0,Calm,Calm,-,N/A,,Clear,0,2013-08-07 05:53:00
1:53 AM,62.1,60.1,93,29.79,-9999.0,West,6.9,-,N/A,,Clear,280,2013-08-07 06:53:00
2:46 AM,62.6,60.8,94,29.81,-9999.0,WNW,6.9,-,N/A,,Mostly Cloudy,290,2013-08-07 07:46:00
2:53 AM,63.0,60.1,90,29.80,-9999.0,WNW,8.1,-,N/A,,Overcast,290,2013-08-07 07:53:00
3:09 AM,62.6,60.8,94,29.82,-9999.0,WNW,8.1,-,N/A,,Overcast,300,2013-08-07 08:09:00
3:53 AM,63.0,61.0,93,29.81,-9999.0,NNW,8.1,-,N/A,,Overcast,330,2013-08-07 08:53:00
4:53 AM,63.0,60.1,90,29.82,-9999.0,NW,6.9,-,N/A,,Overcast,320,2013-08-07 09:53:00
5:37 AM,62.6,60.8,94,29.84,-9999.0,NNW,8.1,-,N/A,,Overcast,330,2013-08-07 10:37:00
5:53 AM,64.0,61.0,90,29.84,-9999.0,NNW,10.4,-,N/A,,Overcast,330,2013-08-07 10:53:00
6:53 AM,62.1,57.9,86,29.87,10.0,North,9.2,-,N/A,,Overcast,350,2013-08-07 11:53:00
7:15 AM,62.6,57.2,82,29.89,10.0,NNW,10.4,-,N/A,,Overcast,330,2013-08-07 12:15:00
7:53 AM,63.0,57.0,81,29.90,10.0,NNW,10.4,-,N/A,,Overcast,330,2013-08-07 12:53:00
8:53 AM,62.1,55.0,78,29.92,10.0,NW,11.5,-,N/A,,Mostly Cloudy,320,2013-08-07 13:53:00
9:02 AM,64.4,55.4,73,29.93,10.0,NNW,12.7,-,N/A,,Scattered Clouds,330,2013-08-07 14:02:00
9:53 AM,66.0,55.0,68,29.94,10.0,North,11.5,-,N/A,,Clear,360,2013-08-07 14:53:00
10:53 AM,68.0,53.1,59,29.96,10.0,NNW,11.5,19.6,N/A,,Clear,340,2013-08-07 15:53:00
11:53 AM,71.1,53.1,53,29.98,10.0,North,13.8,21.9,N/A,,Partly Cloudy,350,2013-08-07 16:53:00
12:53 PM,72.0,52.0,49,29.98,10.0,North,10.4,19.6,N/A,,Clear,350,2013-08-07 17:53:00
1:53 PM,73.0,48.9,42,29.98,10.0,NNW,9.2,17.3,N/A,,Clear,340,2013-08-07 18:53:00
2:53 PM,73.9,50.0,43,29.97,10.0,North,11.5,-,N/A,,Clear,10,2013-08-07 19:53:00
3:53 PM,75.0,48.9,40,29.97,10.0,Variable,5.8,-,N/A,,Clear,0,2013-08-07 20:53:00
4:53 PM,75.0,48.0,38,29.96,10.0,North,9.2,-,N/A,,Clear,360,2013-08-07 21:53:00
5:53 PM,75.0,48.0,38,29.96,10.0,North,6.9,-,N/A,,Clear,350,2013-08-07 22:53:00
6:53 PM,73.0,48.0,41,29.97,10.0,North,9.2,-,N/A,,Clear,350,2013-08-07 23:53:00
7:53 PM,72.0,48.0,43,29.98,10.0,North,5.8,-,N/A,,Clear,360,2013-08-08 00:53:00
8:53 PM,70.0,50.0,49,29.99,10.0,NNE,4.6,-,N/A,,Clear,20,2013-08-08 01:53:00
9:53 PM,64.0,52.0,65,30.01,10.0,Calm,Calm,-,N/A,,Clear,0,2013-08-08 02:53:00
10:53 PM,63.0,52.0,67,30.03,10.0,Calm,Calm,-,N/A,,Clear,0,2013-08-08 03:53:00
11:53 PM,62.1,53.1,72,30.02,10.0,Calm,Calm,-,N/A,,Clear,0,2013-08-08 04:53:00